Weather History for West Palm Beach, FL

Change the Weather History Date:

Thursday, May 2, 2013

  Actual Average Record
Temperature  
Mean Temperature 73 °F 76 °F  
Max Temperature 77 °F 84 °F 94 °F (1929)
Min Temperature 69 °F 68 °F 54 °F (1925)
Degree Days  
Heating Degree Days 0 0  
Month to date heating degree days 0 0  
Since 1 July heating degree days 164 233  
Cooling Degree Days 8 11  
Month to date cooling degree days 18 22  
Year to date cooling degree days 845 717  
Growing Degree Days 23 (Base 50)    
Moisture  
Dew Point 70 °F    
Average Humidity 89    
Maximum Humidity 93    
Minimum Humidity 84    
Precipitation  
Precipitation 2.41 in 0.08 in 2.41 in (2013)
Month to date precipitation 3.26 0.16  
Year to date precipitation 12.54 14.36  
Snow  
Snow 0.00 in - - ()
Month to date snowfall 0.0  
Since 1 July snowfall 0.0  
Snow Depth 0.00 in    
Sea Level Pressure  
Sea Level Pressure 29.89 in    
Wind  
Wind Speed 13 mph (East)    
Max Wind Speed 28 mph    
Max Gust Speed 35 mph    
Visibility 7 miles    
Events Fog , Rain , Thunderstorm    
T = Trace of Precipitation, MM = Missing Value Source: NWS Daily Summary

Daily Weather History Graph

Daily Weather History Graph

Search for Another Location

Airport:

Trip Planner

Search our weather history database for the weather conditions in past years. The results will help you decide how hot, cold, wet, or windy it might be!

Date:

Astronomy

May. 02, 2013 Rise Set
Actual Time 6:41 AM EDT 7:53 PM EDT
Civil Twilight 6:16 AM EDT 8:18 PM EDT
Nautical Twilight 5:47 AM EDT 8:47 PM EDT
Astronomical Twilight 5:17 AM EDT 9:17 PM EDT
Moon 1:46 AM EDT (5/2) 1:20 PM EDT (5/2)
Length of Visible Light 14h 01m
Length of Day
13h 12m
Waning Gibbous, 48% of the Moon is Illuminated
May 2
Waning Gibbous
May 9
New
May 18
First Quarter
May 25
Full
May 31
Last Quarter

Hourly Weather History & Observations

Time (EDT) Temp. Dew Point Humidity Pressure Visibility Wind Dir Wind Speed Gust Speed Precip Events Conditions
12:39 AM 71.6 °F 69.8 °F 94% 29.95 in 10.0 mi North 5.8 mph - N/A   Overcast
12:53 AM 72.0 °F 70.0 °F 93% 29.94 in 10.0 mi North 4.6 mph - N/A   Overcast
1:04 AM 71.6 °F 69.8 °F 94% 29.94 in 10.0 mi NNE 4.6 mph - N/A   Overcast
1:21 AM 71.6 °F 69.8 °F 94% 29.93 in 10.0 mi North 3.5 mph - N/A   Mostly Cloudy
1:53 AM 73.0 °F 70.0 °F 90% 29.91 in 10.0 mi ENE 10.4 mph - N/A   Scattered Clouds
2:53 AM 73.9 °F 70.0 °F 87% 29.91 in 10.0 mi East 6.9 mph - N/A   Scattered Clouds
3:53 AM 73.0 °F 70.0 °F 90% 29.90 in 10.0 mi East 10.4 mph - N/A   Scattered Clouds
4:53 AM 73.9 °F 71.1 °F 91% 29.90 in 10.0 mi East 8.1 mph - N/A   Scattered Clouds
5:21 AM 73.4 °F 71.6 °F 94% 29.90 in 10.0 mi East 9.2 mph - N/A   Mostly Cloudy
5:53 AM 75.0 °F 71.1 °F 87% 29.89 in 10.0 mi East 13.8 mph - N/A   Mostly Cloudy
6:53 AM 73.9 °F 69.1 °F 85% 29.89 in 10.0 mi East 11.5 mph - 0.04 in Rain Light Rain
7:51 AM 75.2 °F 71.6 °F 89% 29.90 in 10.0 mi East 12.7 mph - 0.00 in   Mostly Cloudy
7:53 AM 75.9 °F 71.1 °F 85% 29.91 in 10.0 mi ESE 10.4 mph - 0.00 in   Mostly Cloudy
8:05 AM 75.2 °F 71.6 °F 89% 29.91 in 10.0 mi SE 15.0 mph 21.9 mph 0.00 in Rain , Thunderstorm Light Thunderstorms and Rain
8:21 AM 73.4 °F 69.8 °F 88% 29.92 in 10.0 mi SE 12.7 mph - 0.00 in Rain , Thunderstorm Light Thunderstorms and Rain
8:48 AM 73.4 °F 71.6 °F 94% 29.91 in 10.0 mi ESE 6.9 mph - 0.00 in Rain Light Rain
8:53 AM 73.0 °F 71.1 °F 93% 29.91 in 10.0 mi SE 9.2 mph - 0.00 in Rain Light Rain
9:14 AM 75.2 °F 71.6 °F 89% 29.92 in 10.0 mi SE 6.9 mph - 0.00 in   Mostly Cloudy
9:32 AM 75.2 °F 71.6 °F 89% 29.91 in 10.0 mi SE 6.9 mph - 0.00 in   Mostly Cloudy
9:48 AM 77.0 °F 71.6 °F 83% 29.91 in 10.0 mi SSE 9.2 mph - 0.00 in Rain Light Rain
9:53 AM 75.9 °F 71.1 °F 85% 29.91 in 10.0 mi SE 13.8 mph - 0.00 in Rain Light Rain
10:16 AM 75.2 °F 71.6 °F 89% 29.92 in 10.0 mi SE 15.0 mph - 0.00 in   Overcast
10:50 AM 75.2 °F 71.6 °F 89% 29.91 in 10.0 mi SE 15.0 mph - 0.00 in Rain Light Rain
10:53 AM 73.9 °F 71.1 °F 91% 29.91 in 4.0 mi SE 17.3 mph 23.0 mph 0.00 in Rain Rain
10:57 AM 73.4 °F 69.8 °F 88% 29.91 in 2.0 mi SSE 13.8 mph 23.0 mph 0.01 in Rain Heavy Rain
11:01 AM 73.4 °F 69.8 °F 88% 29.92 in 0.8 mi South 10.4 mph - 0.04 in Rain Heavy Rain
11:13 AM 71.6 °F 69.8 °F 94% 29.91 in 1.0 mi SSE 11.5 mph - 0.16 in Rain Heavy Rain
11:25 AM 71.6 °F 69.8 °F 94% 29.91 in 0.8 mi SSE 6.9 mph - 0.26 in Rain , Thunderstorm Heavy Thunderstorms and Rain
11:53 AM 73.0 °F 71.1 °F 93% 29.91 in 0.8 mi SSE 10.4 mph - 0.56 in Rain , Thunderstorm Heavy Thunderstorms and Rain
12:24 PM 71.6 °F 69.8 °F 94% 29.91 in 0.5 mi SE 13.8 mph - 0.75 in Fog , Rain , Thunderstorm Heavy Thunderstorms and Rain
12:29 PM 71.6 °F 69.8 °F 94% 29.91 in 1.0 mi SE 12.7 mph - 0.79 in Rain , Thunderstorm Heavy Thunderstorms and Rain
12:38 PM 71.6 °F 69.8 °F 94% 29.90 in 2.5 mi South 5.8 mph - 0.84 in Rain , Thunderstorm Heavy Thunderstorms and Rain
12:46 PM 71.6 °F 69.8 °F 94% 29.90 in 4.0 mi WSW 4.6 mph - 0.85 in Rain , Thunderstorm Thunderstorms and Rain
12:53 PM 72.0 °F 70.0 °F 93% 29.90 in 5.0 mi WSW 4.6 mph - 0.86 in Rain , Thunderstorm Light Thunderstorms and Rain
1:38 PM 71.6 °F 69.8 °F 94% 29.90 in 7.0 mi North 4.6 mph - 0.01 in Rain , Thunderstorm Light Thunderstorms and Rain
1:46 PM 71.6 °F 69.8 °F 94% 29.91 in 4.0 mi NNW 3.5 mph - 0.02 in Rain , Thunderstorm Thunderstorms and Rain
1:53 PM 71.1 °F 70.0 °F 96% 29.91 in 4.0 mi North 3.5 mph - 0.06 in Rain , Thunderstorm Thunderstorms and Rain
2:29 PM 69.8 °F 66.2 °F 88% 29.91 in 3.0 mi NNE 10.4 mph 18.4 mph 0.12 in Rain , Thunderstorm Heavy Thunderstorms and Rain
2:49 PM 69.8 °F 66.2 °F 88% 29.90 in 3.0 mi North 8.1 mph - 0.18 in Rain , Thunderstorm Heavy Thunderstorms and Rain
2:53 PM 69.1 °F 66.9 °F 93% 29.90 in 4.0 mi NNE 6.9 mph - 0.19 in Rain , Thunderstorm Thunderstorms and Rain
3:36 PM 71.6 °F 69.8 °F 94% 29.87 in 7.0 mi NE 15.0 mph 21.9 mph 0.08 in Rain Light Rain
3:53 PM 71.1 °F 69.1 °F 93% 29.88 in 7.0 mi East 17.3 mph 24.2 mph 0.09 in Rain Light Rain
4:00 PM 71.6 °F 69.8 °F 94% 29.88 in 7.0 mi East 20.7 mph 25.3 mph 0.00 in Rain , Thunderstorm Light Thunderstorms and Rain
4:05 PM 71.6 °F 69.8 °F 94% 29.89 in 5.0 mi East 20.7 mph - 0.01 in Rain , Thunderstorm Light Thunderstorms and Rain
4:53 PM 71.1 °F 69.1 °F 93% 29.88 in 4.0 mi East 16.1 mph - 0.16 in Rain , Thunderstorm Thunderstorms and Rain
5:53 PM 71.1 °F 68.0 °F 90% 29.86 in 4.0 mi East 16.1 mph - 0.20 in Rain , Thunderstorm Thunderstorms and Rain
6:12 PM 71.6 °F 69.8 °F 94% 29.85 in 4.0 mi East 18.4 mph - 0.09 in Rain Rain
6:45 PM 71.6 °F 69.8 °F 94% 29.84 in 4.0 mi ESE 19.6 mph - 0.16 in Rain Light Rain
6:53 PM 71.1 °F 68.0 °F 90% 29.83 in 6.0 mi ESE 20.7 mph 25.3 mph 0.16 in Rain Light Rain
7:53 PM 71.1 °F 66.9 °F 87% 29.81 in 10.0 mi East 19.6 mph - 0.07 in Rain Light Rain
8:53 PM 72.0 °F 66.9 °F 84% 29.82 in 10.0 mi East 18.4 mph 28.8 mph 0.02 in Rain Light Rain
9:53 PM 72.0 °F 66.9 °F 84% 29.82 in 10.0 mi East 18.4 mph 31.1 mph 0.00 in   Mostly Cloudy
10:12 PM 73.4 °F 68.0 °F 83% 29.83 in 10.0 mi East 20.7 mph 24.2 mph N/A   Mostly Cloudy
10:25 PM 71.6 °F 66.2 °F 83% 29.84 in 10.0 mi East 19.6 mph 25.3 mph N/A   Mostly Cloudy
10:53 PM 72.0 °F 66.9 °F 84% 29.84 in 10.0 mi East 17.3 mph 21.9 mph N/A   Mostly Cloudy
11:53 PM 72.0 °F 66.0 °F 81% 29.83 in 10.0 mi East 17.3 mph 26.5 mph N/A   Mostly Cloudy